Location: *
(46.1866°S, 178.5290°W)
Time: 18:53:33
(UTC+00:00)

ERS-2 - Pass Details

Date: 19 May 2021
Orbit: 491 x 496 km, 98.5° (Epoch: 17 June)

Event Time Altitude Azimuth Distance (km) Brightness Sun altitude
Rises 05:15:14 0° 59° (ENE) 2,591 5.4 -8.3°
Reaches altitude 10° 05:17:59 10° 83° (E) 1,719 4.3 -8.8°
Maximum altitude 05:20:08 15° 118° (ESE) 1,437 3.8 -9.1°
Drops below altitude 10° 05:22:18 10° 154° (SSE) 1,735 4.5 -9.5°
Sets 05:25:06 0° 177° (S) 2,631 5.6 -9.9°
